Flag for Myanmar Weather past 2 weeks in Yangon, Myanmar

Now
88 °F

Partly sunny.


Feels Like: 100 °F
Forecast: 78 / 87 °F
Wind: 6 mph from South

Location: Rangoon Airport

Current Time: Sep 3, 2015 at 4:28:09 PM

Latest Report: Sep 3, 2015 at 4:00 PM


Visibility: 5 mi

Pressure: 29.80 "Hg

Humidity: 70%

Dew point: 77 °F

Location of YangonLocation

Historic Weather in Yangon — Graph

°F

Yangon temperature yesterday

Maximum temperature yesterday: 88 °F (at 12:00 PM)
Minimum temperature yesterday: 77 °F (at 7:30 PM)
Average temperature yesterday: 80 °F

Past Weeks' High & Low Weather Summary

 TemperatureHumidityPressure
High93 °F (Aug 30, 1:30 PM)100% (Aug 21, 8:00 PM)29.86 "Hg (Aug 21, 8:00 PM)
Low75 °F (Aug 22, 5:00 PM)53% (Aug 30, 1:30 PM)29.62 "Hg (Aug 25, 3:30 PM)
Average80 °F90%29.76 "Hg
* Reported Aug 19 2:30 PM — Sep 3 3:00 PM, Yangon, Weather by CustomWeather, © 2015

Note: Actual official high and low records may vary slightly from our data, if they occured in-between our weather recording intervals... More about our weather records

Advertising

Yangon weather history for previous 24 hours

 ConditionsComfort  
Time TempWeatherWind HumidityBarometerVisibility
3:00 PM
Thu, Sep 3
90 °FPartly sunny.6 mph67%29.80 "Hg5 mi
2:30 PM86 °FPartly sunny.6 mph75%29.80 "Hg5 mi
2:00 PM86 °FPartly sunny.6 mph75%29.80 "Hg5 mi
1:30 PM88 °FPartly sunny.6 mph70%29.83 "Hg5 mi
1:00 PM90 °FPartly sunny.6 mph67%29.83 "Hg5 mi
12:30 PM90 °FPartly sunny.6 mph67%29.86 "Hg5 mi
12:00 PM90 °FPartly sunny.6 mph67%29.86 "Hg5 mi
11:30 AM88 °FPartly sunny.6 mph70%29.86 "Hg5 mi
11:00 AM86 °FPartly sunny.6 mph75%29.86 "Hg5 mi
10:30 AM86 °FPartly sunny.6 mph75%29.86 "Hg5 mi
10:00 AM86 °FPartly sunny.5 mph75%29.86 "Hg5 mi
9:30 AM84 °FPartly sunny.6 mph84%29.86 "Hg5 mi
9:00 AM81 °FPartly sunny.3 mph94%29.86 "Hg5 mi
8:30 AM81 °FPartly sunny.3 mph94%29.83 "Hg4 mi
8:00 AM81 °FPartly sunny.5 mph94%29.83 "Hg4 mi
7:30 AM79 °FPartly sunny.2 mph94%29.83 "Hg4 mi
7:00 AM79 °FPartly sunny.3 mph94%29.83 "Hg4 mi
6:00 AM79 °FMostly cloudy.2 mph94%29.80 "Hg3 mi
5:30 AM79 °FMostly cloudy.2 mph94%29.80 "Hg4 mi
5:00 AM79 °FMostly cloudy.2 mph94%29.80 "Hg4 mi
4:00 AM79 °FMostly cloudy.3 mph94%29.80 "Hg4 mi
3:30 AM77 °FMostly cloudy.2 mph100%29.80 "Hg4 mi
11:30 PM
Wed, Sep 2
77 °FMostly cloudy.2 mph100%29.83 "Hg4 mi
11:00 PM77 °FDrizzle. Mostly cloudy.2 mph100%29.83 "Hg4 mi
10:00 PM77 °FMostly cloudy.5 mph100%29.83 "Hg4 mi
9:30 PM77 °FMostly cloudy.2 mph100%29.80 "Hg4 mi
9:00 PM77 °FMostly cloudy.3 mph100%29.80 "Hg4 mi
8:30 PM77 °FDrizzle. Mostly cloudy.3 mph100%29.80 "Hg4 mi
8:00 PM77 °FMostly cloudy.3 mph100%29.77 "Hg4 mi
7:30 PM77 °FDrizzle. Mostly cloudy.3 mph100%29.77 "Hg3 mi
7:00 PM79 °FDrizzle. Mostly cloudy.5 mph94%29.77 "Hg3 mi
6:30 PM79 °FLight rain. Mostly cloudy.5 mph94%29.74 "Hg3 mi
6:00 PM79 °FLight rain. Mostly cloudy.5 mph94%29.74 "Hg3 mi
5:30 PM79 °FDrizzle. Mostly cloudy.5 mph94%29.74 "Hg4 mi
5:00 PM79 °FDrizzle. Mostly cloudy.3 mph94%29.74 "Hg4 mi
4:30 PM79 °FDrizzle. Mostly cloudy.3 mph94%29.74 "Hg4 mi
4:00 PM79 °FLight rain. Mostly cloudy.7 mph94%29.74 "Hg4 mi
Weather by CustomWeather, © 2015

See weather overviewHow to use our weather pages